STARLINK-3054, 49167

Orbit data source: Space-Track

STARLINK-3054, 49167 is a payload satellite owned by SpaceX/Seattle (US) in LEO that was launched on Tue, 14 Sep 2021 UTC via an FALCON 9 launch vehicle from the Air Force Western Test Range (AFWTR). Payload-class satellites include a variety of spacecraft equipped with specific instruments for various scientific and technological missions. These include communications satellites like Starlink; space stations such as the ISS; scientific satellites like the Hubble; Earth observation satellites from companies like Planet Labs, Umbra, and HawkEye 360; GPS; miniature CubeSats for education and research; and military/defense satellites.

Loading next visibility...
Identifier
49167, 2021-082AP
Orbit
LEO
Last TLE update
12 hours ago
Origin
Manufacturer
SpaceX/Seattle
Mission
Operational Commercial Communications
Bus & Motor
STARLINK, Unknown motor
Mass
297 kg wet, ~275 kg dry
Launch date (UTC)
2021-09-14 (4 years ago)
Launch vehicle
FALCON 9
Launch site
Air Force Western Test Range (AFWTR)
Object type
Payload
Rocket body
Debris
Shape & HBR
Box + 1 Pan, 8.86 m
Radar Cross Section
13.562 m², Large (>1 m²)

Expand to show TLE details & history

TLE from 12 hours ago
0 STARLINK-3054
1 49167U 21082AP  25183.78131894 -.00000055  00000-0  31536-5 0  9994
2 49167  69.9992 204.5528 0003500 267.3816  92.6942 14.98330241209749
Epoch: 2025-07-02T18:45Z
TLE epoch observation values (Epoch: 2025-07-02T18:45:05.956Z)
Latitude
-0.00006°
Longitude
2.22047°
Altitude
574.594 km
Speed
7.574 km/s
True Right ascension
13h 38m 12s
True Declination
0° 00' 00"
Sunlit
Object was in daylight at epoch
Visualization orbit readout
Latitude
69.29281°
Longitude
107.7332°
Altitude
585.817 km
Speed
7.573 km/s
Apparent Right ascension
04h 20m 39s
Apparent Declination
36° 10' 08"
Sunlit
Object is in daylight
Visualization observer readout
Local Sidereal Time
18:09:17
Azimuth
21.966° NNE
Elevation
-9.917°
Doppler factor
1
Orbital elements
Apogee altitude
572.435 km
Perigee altitude
567.572 km
Semi-major axis
6,948.14 km
Eccentricity
0.00035
Inclination
69.9992°
RAAN
204.5528°
Arg. of periapsis
267.3816°
True anomaly
Unknown
Mean anomaly
92.6942°
Eccentric anomaly
Unknown
Mean motion
3.74749 °/min
Orbital period
96.06 mins
BSTAR
0.0000031536
Loading maneuver chart data...
Loading SW <> Apogee altitude chart data...
Loading historical data...
Loading historical data...
Loading historical data...
Loading historical data...
Loading historical data...
Loading historical data...
Loading historical data...

STARLINK-3054 Visibility forecast

Observer location: undefined°, undefined°

Span
Click to sort rows by Start time (UTC) header in descending order
Start Az.
Max El. time (UTC)
Max El. Az.
Max El.
End time (UTC)
End Az.
5 mins2025-07-03 11:18:37.252Z15.075° NNE2025-07-03 11:20:37.252Z44.704° NE15.87°2025-07-03 11:23:37.252Z92.025° ESE
5 mins2025-07-03 12:57:37.252Z308.254° NW2025-07-03 12:59:37.252Z251.242° W34.961°2025-07-03 13:02:37.252Z183.649° SSW
7 mins2025-07-04 02:56:37.252Z217.222° SW2025-07-04 02:59:37.252Z303.465° NW42.005°2025-07-04 03:03:37.252Z18.305° NNE
|